• în România
  • Lista ţărilor
  • Pe 7 zile
  • Temperatura apei
  • Hartă satelitară
  • Meteo pe hartă
  • Widget-uri
  • user-avatar
    Intrare

    Meteo pe oră la Krivoy Kust

    Astăzi, 24 Septembrie, Luni

    Timp Temperatura Precipitaţii Vânt Presiune Umiditate
    00:00 +8°C° 0 mm 3 m/s 741 mmHg 87%
    01:00 +8°C° 0 mm 3 m/s 741 mmHg 89%
    02:00 +8°C° 0 mm 3 m/s 741 mmHg 90%
    03:00 +7°C° 0 mm 3 m/s 741 mmHg 91%
    04:00 +7°C° 0 mm 3 m/s 741 mmHg 92%
    05:00 +7°C° 0 mm 3 m/s 741 mmHg 92%
    06:00 +7°C° 0 mm 3 m/s 741 mmHg 93%
    07:00 +8°C° 0 mm 3 m/s 741 mmHg 88%
    08:00 +9°C° 0 mm 3 m/s 741 mmHg 82%
    09:00 +10°C° 0 mm 4 m/s 741 mmHg 77%
    10:00 +12°C° 0 mm 5 m/s 741 mmHg 71%
    11:00 +13°C° 0 mm 5 m/s 741 mmHg 66%
    12:00 +14°C° 0 mm 6 m/s 740 mmHg 60%
    13:00 +12°C° 0.1 mm 7 m/s 740 mmHg 62%
    14:00 +11°C° 0.1 mm 7 m/s 740 mmHg 65%
    15:00 +11°C° 0.1 mm 7 m/s 739 mmHg 67%
    16:00 +10°C° 1.3 mm 8 m/s 738 mmHg 73%
    17:00 +9°C° 1.3 mm 8 m/s 737 mmHg 79%
    18:00 +8°C° 1.3 mm 9 m/s 736 mmHg 85%
    19:00 +8°C° 1.5 mm 9 m/s 735 mmHg 86%
    20:00 +8°C° 1.5 mm 10 m/s 734 mmHg 86%
    21:00 +9°C° 1.5 mm 10 m/s 733 mmHg 87%
    22:00 +9°C° 0.6 mm 10 m/s 733 mmHg 86%
    23:00 +10°C° 0.6 mm 9 m/s 732 mmHg 86%

    Mâine, 25 Septembrie, Marţi

    Timp Temperatura Precipitaţii Vânt Presiune Umiditate
    00:00 +10°C° 0.6 mm 9 m/s 731 mmHg 86%
    01:00 +9°C° 0.1 mm 8 m/s 731 mmHg 85%
    02:00 +9°C° 0.1 mm 8 m/s 731 mmHg 83%
    03:00 +7°C° 0.1 mm 8 m/s 731 mmHg 82%
    04:00 +7°C° 0 mm 8 m/s 731 mmHg 82%
    05:00 +7°C° 0 mm 8 m/s 731 mmHg 81%
    06:00 +6°C° 0 mm 8 m/s 731 mmHg 81%
    07:00 +6°C° 0 mm 8 m/s 731 mmHg 80%
    08:00 +7°C° 0 mm 8 m/s 732 mmHg 80%
    09:00 +7°C° 0 mm 8 m/s 732 mmHg 79%
    10:00 +7°C° 0 mm 8 m/s 733 mmHg 78%
    11:00 +7°C° 0 mm 8 m/s 733 mmHg 77%
    12:00 +7°C° 0 mm 8 m/s 734 mmHg 76%
    13:00 +7°C° 0.1 mm 8 m/s 735 mmHg 77%
    14:00 +7°C° 0.1 mm 8 m/s 735 mmHg 77%
    15:00 +6°C° 0.1 mm 8 m/s 736 mmHg 77%
    16:00 +6°C° 0.3 mm 8 m/s 737 mmHg 78%
    17:00 +6°C° 0.3 mm 8 m/s 737 mmHg 79%
    18:00 +5°C° 0.3 mm 8 m/s 738 mmHg 80%
    19:00 +5°C° 0.2 mm 7 m/s 739 mmHg 80%
    20:00 +5°C° 0.2 mm 7 m/s 740 mmHg 80%
    21:00 +5°C° 0.2 mm 7 m/s 741 mmHg 80%
    22:00 +4°C° 0 mm 6 m/s 741 mmHg 81%
    23:00 +4°C° 0 mm 6 m/s 742 mmHg 81%

    Poimâine, 26 Septembrie, Miercuri

    Timp Temperatura Precipitaţii Vânt Presiune Umiditate
    00:00 +4°C° 0 mm 6 m/s 742 mmHg 81%
    01:00 +3°C° 0 mm 6 m/s 743 mmHg 82%
    02:00 +3°C° 0 mm 5 m/s 744 mmHg 83%
    03:00 +2°C° 0 mm 5 m/s 744 mmHg 84%
    04:00 +2°C° 0 mm 5 m/s 745 mmHg 85%
    05:00 +2°C° 0 mm 5 m/s 746 mmHg 86%
    06:00 +1°C° 0 mm 5 m/s 746 mmHg 86%
    07:00 +2°C° 0 mm 5 m/s 747 mmHg 81%
    08:00 +2°C° 0 mm 5 m/s 748 mmHg 77%
    09:00 +3°C° 0 mm 6 m/s 749 mmHg 72%
    10:00 +4°C° 0 mm 6 m/s 749 mmHg 66%
    11:00 +6°C° 0 mm 5 m/s 749 mmHg 60%
    12:00 +7°C° 0 mm 5 m/s 749 mmHg 54%
    13:00 +7°C° 0 mm 5 m/s 749 mmHg 52%
    14:00 +8°C° 0 mm 5 m/s 749 mmHg 50%
    15:00 +8°C° 0 mm 4 m/s 749 mmHg 49%
    16:00 +7°C° 0 mm 4 m/s 749 mmHg 53%
    17:00 +8°C° 0 mm 3 m/s 749 mmHg 57%
    18:00 +7°C° 0 mm 2 m/s 749 mmHg 61%
    19:00 +5°C° 0 mm 3 m/s 749 mmHg 63%
    20:00 +5°C° 0 mm 3 m/s 749 mmHg 65%
    21:00 +4°C° 0 mm 4 m/s 749 mmHg 67%
    22:00 +4°C° 0 mm 4 m/s 749 mmHg 68%
    23:00 +3°C° 0 mm 5 m/s 748 mmHg 69%

    27 Septembrie, Joi

    Timp Temperatura Precipitaţii Vânt Presiune Umiditate
    00:00 +3°C° 0 mm 5 m/s 748 mmHg 71%
    01:00 +3°C° 0 mm 6 m/s 747 mmHg 71%
    02:00 +4°C° 0 mm 6 m/s 746 mmHg 71%
    03:00 +4°C° 0 mm 7 m/s 746 mmHg 70%
    04:00 +4°C° 0.3 mm 7 m/s 745 mmHg 71%
    05:00 +4°C° 0.3 mm 8 m/s 744 mmHg 72%
    06:00 +4°C° 0.3 mm 8 m/s 743 mmHg 73%
    07:00 +3°C° 0.9 mm 9 m/s 742 mmHg 75%
    08:00 +3°C° 0.9 mm 9 m/s 742 mmHg 77%
    09:00 +3°C° 0.9 mm 10 m/s 741 mmHg 79%
    10:00 +3°C° 0.8 mm 10 m/s 741 mmHg 81%
    11:00 +5°C° 0.8 mm 10 m/s 740 mmHg 82%
    12:00 +5°C° 0.8 mm 10 m/s 740 mmHg 83%
    13:00 +5°C° 0.2 mm 9 m/s 740 mmHg 83%
    14:00 +6°C° 0.2 mm 9 m/s 740 mmHg 84%
    15:00 +6°C° 0.2 mm 8 m/s 740 mmHg 84%
    16:00 +6°C° 0 mm 8 m/s 740 mmHg 85%
    17:00 +6°C° 0 mm 7 m/s 740 mmHg 86%
    18:00 +8°C° 0 mm 7 m/s 740 mmHg 87%
    19:00 +8°C° 0 mm 6 m/s 740 mmHg 87%
    20:00 +8°C° 0 mm 6 m/s 740 mmHg 88%
    21:00 +8°C° 0 mm 6 m/s 741 mmHg 89%
    22:00 +8°C° 0 mm 5 m/s 741 mmHg 90%
    23:00 +8°C° 0 mm 5 m/s 741 mmHg 91%

    28 Septembrie, Vineri

    Timp Temperatura Precipitaţii Vânt Presiune Umiditate
    00:00 +8°C° 0 mm 5 m/s 741 mmHg 92%
    01:00 +7°C° 0 mm 4 m/s 742 mmHg 93%
    02:00 +7°C° 0 mm 4 m/s 742 mmHg 94%
    03:00 +6°C° 0 mm 4 m/s 742 mmHg 95%
    04:00 +7°C° 0 mm 4 m/s 741 mmHg 95%
    05:00 +7°C° 0 mm 4 m/s 741 mmHg 95%
    06:00 +7°C° 0 mm 5 m/s 741 mmHg 95%
    07:00 +8°C° 0 mm 6 m/s 740 mmHg 93%
    08:00 +9°C° 0 mm 7 m/s 740 mmHg 90%
    09:00 +10°C° 0 mm 8 m/s 739 mmHg 88%
    10:00 +11°C° 0 mm 8 m/s 739 mmHg 86%
    11:00 +11°C° 0 mm 9 m/s 738 mmHg 84%
    12:00 +12°C° 0 mm 10 m/s 738 mmHg 82%
    13:00 +12°C° 0.1 mm 10 m/s 737 mmHg 81%
    14:00 +13°C° 0.1 mm 10 m/s 737 mmHg 80%
    15:00 +13°C° 0.1 mm 10 m/s 736 mmHg 79%
    16:00 +12°C° 0.4 mm 10 m/s 737 mmHg 77%
    17:00 +11°C° 0.4 mm 9 m/s 738 mmHg 75%
    18:00 +10°C° 0.4 mm 8 m/s 738 mmHg 73%
    19:00 +9°C° 0 mm 7 m/s 740 mmHg 75%
    20:00 +7°C° 0 mm 6 m/s 741 mmHg 77%
    21:00 +6°C° 0 mm 4 m/s 742 mmHg 79%
    22:00 +5°C° 0 mm 4 m/s 742 mmHg 82%
    23:00 +5°C° 0 mm 4 m/s 743 mmHg 84%

    29 Septembrie, Sâmbătă

    Timp Temperatura Precipitaţii Vânt Presiune Umiditate
    00:00 +4°C° 0 mm 3 m/s 743 mmHg 86%
    01:00 +4°C° 0 mm 3 m/s 744 mmHg 87%
    02:00 +4°C° 0 mm 3 m/s 744 mmHg 88%
    03:00 +3°C° 0 mm 3 m/s 745 mmHg 89%
    04:00 +3°C° 0 mm 3 m/s 745 mmHg 90%
    05:00 +3°C° 0 mm 3 m/s 745 mmHg 90%
    06:00 +3°C° 0 mm 3 m/s 746 mmHg 91%
    07:00 +4°C° 0 mm 3 m/s 746 mmHg 87%
    08:00 +4°C° 0 mm 4 m/s 747 mmHg 82%
    09:00 +5°C° 0 mm 4 m/s 747 mmHg 77%
    10:00 +6°C° 0 mm 4 m/s 748 mmHg 70%
    11:00 +7°C° 0 mm 4 m/s 748 mmHg 63%
    12:00 +8°C° 0 mm 4 m/s 748 mmHg 56%
    13:00 +8°C° 0 mm 5 m/s 748 mmHg 54%
    14:00 +8°C° 0 mm 5 m/s 748 mmHg 52%
    15:00 +8°C° 0 mm 5 m/s 749 mmHg 51%
    16:00 +7°C° 0 mm 5 m/s 749 mmHg 54%
    17:00 +7°C° 0 mm 4 m/s 750 mmHg 57%
    18:00 +6°C° 0 mm 4 m/s 750 mmHg 61%
    19:00 +5°C° 0 mm 3 m/s 751 mmHg 64%
    20:00 +4°C° 0 mm 3 m/s 751 mmHg 66%
    21:00 +3°C° 0 mm 3 m/s 752 mmHg 69%
    22:00 +3°C° 0 mm 3 m/s 753 mmHg 71%
    23:00 +2°C° 0 mm 3 m/s 753 mmHg 72%
    Arată mai mult

    3.3.7123123